| time (UTC) | temp F | wind direction | speed MPH | gust MPH | rain 1hr in | rain 24hr in | rain mn in | humidity % | barometer mb |
| 20260509231053 | 55 | 0 | 0.0 | 0.0 | 0.00 | 0.00 | 0.17 | 92 | 1010.0 |
| 20260509230553 | 55 | 0 | 0.0 | 0.0 | 0.00 | 0.00 | 0.17 | 92 | 1010.0 |
| 20260509230053 | 55 | 208 | 0.0 | 1.0 | 0.00 | 0.00 | 0.17 | 92 | 1011.0 |
| 20260509225552 | 55 | 0 | 0.0 | 0.0 | 0.00 | 0.00 | 0.17 | 92 | 1011.0 |
| 20260509225054 | 55 | 270 | 0.0 | 1.0 | 0.00 | 0.00 | 0.17 | 92 | 1011.0 |
| 20260509224552 | 55 | 0 | 0.0 | 0.0 | 0.00 | 0.00 | 0.17 | 91 | 1011.0 |
| 20260509224052 | 55 | 148 | 0.0 | 1.0 | 0.00 | 0.00 | 0.17 | 92 | 1011.0 |
| 20260509223552 | 55 | 0 | 0.0 | 0.0 | 0.00 | 0.00 | 0.17 | 92 | 1011.0 |
| 20260509223052 | 55 | 132 | 0.0 | 0.0 | 0.00 | 0.00 | 0.17 | 92 | 1011.0 |
| 20260509222552 | 55 | 298 | 1.0 | 1.0 | 0.00 | 0.00 | 0.17 | 93 | 1011.0 |
| 20260509222053 | 55 | 113 | 1.0 | 2.0 | 0.00 | 0.00 | 0.17 | 93 | 1011.0 |
| 20260509221553 | 55 | 0 | 0.0 | 0.0 | 0.00 | 0.00 | 0.17 | 93 | 1011.0 |
| 20260509221052 | 55 | 0 | 0.0 | 0.0 | 0.00 | 0.00 | 0.17 | 93 | 1011.0 |
| 20260509220553 | 54 | 231 | 0.0 | 1.0 | 0.00 | 0.00 | 0.17 | 93 | 1011.0 |
| 20260509220052 | 54 | 108 | 1.0 | 2.0 | 0.00 | 0.00 | 0.17 | 93 | 1011.0 |
| 20260509215552 | 54 | 303 | 0.0 | 1.0 | 0.00 | 0.00 | 0.17 | 93 | 1011.0 |
| 20260509215052 | 54 | 102 | 0.0 | 1.0 | 0.00 | 0.00 | 0.17 | 93 | 1011.0 |
| 20260509214552 | 54 | 129 | 0.0 | 0.0 | 0.00 | 0.00 | 0.17 | 93 | 1011.0 |
| 20260509214052 | 54 | 162 | 1.0 | 1.0 | 0.00 | 0.00 | 0.17 | 93 | 1011.0 |
| 20260509213552 | 54 | 123 | 1.0 | 2.0 | 0.02 | 0.00 | 0.17 | 93 | 1011.0 |
| 20260509213052 | 54 | 118 | 0.0 | 0.0 | 0.00 | 0.00 | 0.17 | 92 | 1011.0 |
| 20260509212552 | 54 | 229 | 0.0 | 0.0 | 0.04 | 0.00 | 0.16 | 92 | 1011.0 |
| 20260509212053 | 54 | 164 | 1.0 | 1.0 | 0.01 | 0.00 | 0.16 | 92 | 1011.0 |
| 20260509211553 | 54 | 141 | 0.0 | 0.0 | 0.01 | 0.00 | 0.16 | 91 | 1011.0 |
| 20260509211052 | 55 | 174 | 1.0 | 1.0 | 0.03 | 0.00 | 0.15 | 91 | 1011.0 |
| 20260509210553 | 55 | 158 | 0.0 | 0.0 | 0.16 | 0.00 | 0.15 | 91 | 1011.0 |
| 20260509210053 | 55 | 0 | 0.0 | 0.0 | 0.01 | 0.00 | 0.14 | 91 | 1011.0 |
| 20260509205555 | 55 | 200 | 1.0 | 1.0 | 0.11 | 0.00 | 0.13 | 90 | 1011.0 |
| 20260509205052 | 55 | 191 | 1.0 | 1.0 | 0.05 | 0.00 | 0.12 | 90 | 1011.0 |
| 20260509204553 | 55 | 0 | 0.0 | 0.0 | 0.07 | 0.00 | 0.12 | 90 | 1011.0 |
| 20260509204053 | 55 | 249 | 1.0 | 2.0 | 0.14 | 0.00 | 0.10 | 90 | 1011.0 |
| 20260509203555 | 55 | 249 | 0.0 | 0.0 | 0.00 | 0.00 | 0.10 | 89 | 1011.0 |
| 20260509203053 | 55 | 171 | 1.0 | 1.0 | 0.00 | 0.00 | 0.09 | 89 | 1011.0 |
| 20260509202552 | 55 | 0 | 0.0 | 0.0 | 0.07 | 0.00 | 0.09 | 89 | 1011.0 |
| 20260509202053 | 55 | 205 | 1.0 | 1.0 | 0.16 | 0.00 | 0.08 | 88 | 1011.0 |
| 20260509201552 | 55 | 292 | 1.0 | 1.0 | 0.02 | 0.00 | 0.08 | 89 | 1011.0 |
| 20260509201052 | 55 | 258 | 1.0 | 2.0 | 0.06 | 0.00 | 0.07 | 89 | 1011.0 |
| 20260509200552 | 55 | 258 | 1.0 | 1.0 | 0.00 | 0.00 | 0.07 | 90 | 1011.0 |
| 20260509200052 | 55 | 259 | 0.0 | 0.0 | 0.03 | 0.00 | 0.07 | 90 | 1011.0 |
| 20260509195553 | 55 | 298 | 0.0 | 0.0 | 0.01 | 0.00 | 0.07 | 90 | 1011.0 |
| 20260509195052 | 55 | 0 | 0.0 | 0.0 | 0.00 | 0.00 | 0.07 | 90 | 1011.0 |
| 20260509194553 | 55 | 0 | 0.0 | 0.0 | 0.02 | 0.00 | 0.07 | 90 | 1011.0 |
| 20260509194053 | 55 | 169 | 1.0 | 2.0 | 0.06 | 0.00 | 0.06 | 90 | 1011.0 |
| 20260509193554 | 55 | 162 | 0.0 | 1.0 | 0.00 | 0.00 | 0.06 | 90 | 1012.0 |
| 20260509193052 | 55 | 214 | 1.0 | 2.0 | 0.32 | 0.00 | 0.06 | 89 | 1012.0 |
| 20260509192553 | 55 | 270 | 1.0 | 2.0 | 0.04 | 0.00 | 0.05 | 88 | 1011.0 |
| 20260509192052 | 56 | 159 | 0.0 | 1.0 | 0.08 | 0.00 | 0.04 | 88 | 1011.0 |
| 20260509191553 | 56 | 193 | 0.0 | 1.0 | 0.03 | 0.00 | 0.03 | 87 | 1011.0 |
| 20260509191053 | 56 | 74 | 0.0 | 1.0 | 0.12 | 0.00 | 0.03 | 86 | 1011.0 |
| 20260509190122 | 57 | 235 | 0.0 | 1.0 | 0.00 | 0.00 | 0.02 | 85 | 1011.0 |
| 20260509185553 | 57 | 273 | 0.0 | 2.0 | 0.00 | 0.00 | 0.02 | 84 | 1011.0 |
| 20260509185052 | 57 | 63 | 1.0 | 2.0 | 0.00 | 0.00 | 0.02 | 83 | 1011.0 |
| 20260509184552 | 57 | 200 | 0.0 | 1.0 | 0.00 | 0.00 | 0.02 | 84 | 1012.0 |
| 20260509184052 | 57 | 237 | 1.0 | 2.0 | 0.00 | 0.00 | 0.02 | 84 | 1012.0 |
| 20260509183553 | 57 | 0 | 0.0 | 0.0 | 0.00 | 0.00 | 0.02 | 84 | 1011.0 |
| 20260509183052 | 57 | 0 | 0.0 | 0.0 | 0.00 | 0.00 | 0.02 | 84 | 1011.0 |
| 20260509182553 | 57 | 0 | 0.0 | 0.0 | 0.00 | 0.00 | 0.02 | 85 | 1011.0 |
| 20260509182052 | 57 | 236 | 0.0 | 1.0 | 0.00 | 0.00 | 0.02 | 83 | 1011.0 |
| 20260509181553 | 57 | 261 | 0.0 | 1.0 | 0.00 | 0.00 | 0.02 | 83 | 1011.0 |
| 20260509181055 | 58 | 0 | 0.0 | 0.0 | 0.00 | 0.00 | 0.02 | 82 | 1011.0 |
| 20260509180552 | 58 | 180 | 0.0 | 0.0 | 0.00 | 0.00 | 0.01 | 81 | 1012.0 |
| 20260509180053 | 59 | 237 | 2.0 | 4.0 | 0.05 | 0.00 | 0.01 | 79 | 1012.0 |
| 20260509175552 | 60 | 318 | 1.0 | 2.0 | 0.06 | 0.00 | 0.01 | 80 | 1012.0 |
| 20260509175053 | 60 | 0 | 0.0 | 0.0 | 0.00 | 0.00 | 0.00 | 79 | 1012.0 |
| 20260509174553 | 60 | 28 | 1.0 | 2.0 | 0.01 | 0.00 | 0.00 | 78 | 1012.0 |
| 20260509174053 | 61 | 257 | 1.0 | 2.0 | 0.00 | 0.00 | 0.00 | 75 | 1012.0 |
| 20260509173553 | 61 | 199 | 0.0 | 1.0 | 0.00 | 0.00 | 0.00 | 77 | 1012.0 |
| 20260509173052 | 62 | 189 | 2.0 | 2.0 | 0.00 | 0.00 | 0.00 | 78 | 1012.0 |
| 20260509172553 | 62 | 0 | 0.0 | 0.0 | 0.00 | 0.00 | 0.00 | 76 | 1012.0 |
| 20260509172053 | 62 | 176 | 2.0 | 3.0 | 0.00 | 0.00 | 0.00 | 74 | 1012.0 |
| 20260509171552 | 63 | 257 | 1.0 | 2.0 | 0.00 | 0.00 | 0.00 | 72 | 1012.0 |
| 20260509171053 | 63 | 281 | 2.0 | 2.0 | 0.00 | 0.00 | 0.00 | 70 | 1012.0 |
| 20260509170553 | 63 | 215 | 1.0 | 2.0 | 0.00 | 0.00 | 0.00 | 70 | 1011.0 |
| 20260509170052 | 63 | 332 | 0.0 | 0.0 | 0.00 | 0.00 | 0.00 | 69 | 1011.0 |
| 20260509165553 | 63 | 176 | 0.0 | 0.0 | 0.00 | 0.00 | 0.00 | 70 | 1011.0 |
| 20260509165052 | 62 | 31 | 0.0 | 0.0 | 0.00 | 0.00 | 0.00 | 72 | 1011.0 |
| 20260509164553 | 62 | 298 | 1.0 | 2.0 | 0.00 | 0.00 | 0.00 | 70 | 1011.0 |
| 20260509164053 | 62 | 239 | 2.0 | 2.0 | 0.00 | 0.00 | 0.00 | 69 | 1011.0 |
| 20260509163552 | 62 | 95 | 1.0 | 2.0 | 0.00 | 0.00 | 0.00 | 70 | 1011.0 |
| 20260509163052 | 62 | 0 | 0.0 | 0.0 | 0.00 | 0.00 | 0.00 | 69 | 1011.0 |
| 20260509162553 | 62 | 193 | 1.0 | 2.0 | 0.00 | 0.00 | 0.00 | 68 | 1011.0 |
| 20260509162052 | 62 | 220 | 1.0 | 1.0 | 0.00 | 0.00 | 0.00 | 70 | 1012.0 |
| 20260509161553 | 62 | 175 | 1.0 | 2.0 | 0.00 | 0.00 | 0.00 | 70 | 1012.0 |
| 20260509161052 | 62 | 266 | 3.0 | 5.0 | 0.00 | 0.00 | 0.00 | 70 | 1012.0 |
| 20260509160553 | 62 | 0 | 0.0 | 0.0 | 0.00 | 0.00 | 0.00 | 71 | 1012.0 |
| 20260509160053 | 62 | 208 | 2.0 | 4.0 | 0.00 | 0.00 | 0.00 | 71 | 1012.0 |
| 20260509155552 | 62 | 269 | 1.0 | 2.0 | 0.00 | 0.00 | 0.00 | 71 | 1012.0 |
| 20260509155052 | 62 | 175 | 1.0 | 2.0 | 0.00 | 0.00 | 0.00 | 70 | 1012.0 |
| 20260509154553 | 61 | 214 | 2.0 | 2.0 | 0.00 | 0.00 | 0.00 | 71 | 1012.0 |
| 20260509154052 | 61 | 207 | 2.0 | 3.0 | 0.00 | 0.00 | 0.00 | 72 | 1012.0 |
| 20260509153552 | 61 | 175 | 2.0 | 3.0 | 0.00 | 0.00 | 0.00 | 71 | 1012.0 |
| 20260509153052 | 61 | 249 | 1.0 | 2.0 | 0.00 | 0.00 | 0.00 | 71 | 1012.0 |
| 20260509152553 | 61 | 249 | 1.0 | 1.0 | 0.00 | 0.00 | 0.00 | 71 | 1012.0 |
| 20260509152052 | 61 | 210 | 2.0 | 3.0 | 0.00 | 0.00 | 0.00 | 72 | 1012.0 |
| 20260509151552 | 60 | 191 | 2.0 | 3.0 | 0.00 | 0.00 | 0.00 | 72 | 1012.0 |
| 20260509151053 | 60 | 191 | 1.0 | 2.0 | 0.00 | 0.00 | 0.00 | 73 | 1012.0 |
| 20260509150554 | 60 | 252 | 1.0 | 2.0 | 0.00 | 0.00 | 0.00 | 72 | 1012.0 |
| 20260509150052 | 60 | 200 | 2.0 | 2.0 | 0.00 | 0.00 | 0.00 | 73 | 1012.0 |
| 20260509145552 | 60 | 280 | 1.0 | 2.0 | 0.00 | 0.00 | 0.00 | 73 | 1012.0 |
| 20260509145053 | 60 | 326 | 2.0 | 3.0 | 0.00 | 0.00 | 0.00 | 72 | 1012.0 |
| 20260509144552 | 60 | 320 | 1.0 | 3.0 | 0.00 | 0.00 | 0.00 | 73 | 1012.0 |
| 20260509144052 | 60 | 253 | 2.0 | 2.0 | 0.00 | 0.00 | 0.00 | 74 | 1012.0 |
| 20260509143553 | 60 | 198 | 1.0 | 2.0 | 0.00 | 0.00 | 0.00 | 73 | 1012.0 |
| 20260509143053 | 59 | 275 | 0.0 | 0.0 | 0.00 | 0.00 | 0.00 | 74 | 1012.0 |
| 20260509142553 | 59 | 225 | 1.0 | 2.0 | 0.00 | 0.00 | 0.00 | 73 | 1012.0 |
| 20260509142055 | 59 | 169 | 1.0 | 2.0 | 0.00 | 0.00 | 0.00 | 74 | 1012.0 |
| 20260509141552 | 59 | 290 | 3.0 | 4.0 | 0.00 | 0.00 | 0.00 | 74 | 1012.0 |
| 20260509141052 | 59 | 237 | 1.0 | 2.0 | 0.00 | 0.00 | 0.00 | 75 | 1012.0 |
| 20260509140554 | 59 | 223 | 1.0 | 2.0 | 0.00 | 0.00 | 0.00 | 76 | 1012.0 |
| 20260509140052 | 58 | 284 | 0.0 | 0.0 | 0.00 | 0.00 | 0.00 | 76 | 1012.0 |
| 20260509135553 | 58 | 211 | 1.0 | 1.0 | 0.00 | 0.00 | 0.00 | 77 | 1012.0 |
| 20260509135053 | 58 | 174 | 1.0 | 1.0 | 0.00 | 0.00 | 0.00 | 77 | 1012.0 |
| 20260509134552 | 58 | 167 | 2.0 | 3.0 | 0.00 | 0.00 | 0.00 | 77 | 1012.0 |
| 20260509134052 | 57 | 169 | 1.0 | 2.0 | 0.00 | 0.00 | 0.00 | 77 | 1012.0 |
| 20260509133552 | 56 | 204 | 0.0 | 0.0 | 0.00 | 0.00 | 0.00 | 79 | 1012.0 |
| 20260509133055 | 56 | 250 | 0.0 | 1.0 | 0.00 | 0.00 | 0.00 | 80 | 1012.0 |
| 20260509132552 | 55 | 209 | 0.0 | 1.0 | 0.00 | 0.00 | 0.00 | 80 | 1012.0 |
| 20260509132053 | 55 | 187 | 1.0 | 1.0 | 0.00 | 0.00 | 0.00 | 80 | 1012.0 |
| 20260509131552 | 55 | 0 | 0.0 | 0.0 | 0.00 | 0.00 | 0.00 | 82 | 1012.0 |
| 20260509131052 | 54 | 0 | 0.0 | 0.0 | 0.00 | 0.00 | 0.00 | 82 | 1012.0 |
| 20260509130554 | 54 | 240 | 0.0 | 1.0 | 0.00 | 0.00 | 0.00 | 81 | 1012.0 |
| 20260509130052 | 54 | 235 | 0.0 | 0.0 | 0.00 | 0.00 | 0.00 | 82 | 1012.0 |
| 20260509125553 | 53 | 0 | 0.0 | 0.0 | 0.00 | 0.00 | 0.00 | 82 | 1012.0 |
| 20260509125054 | 53 | 0 | 0.0 | 0.0 | 0.00 | 0.00 | 0.00 | 82 | 1012.0 |
| 20260509124553 | 53 | 276 | 1.0 | 2.0 | 0.00 | 0.00 | 0.00 | 82 | 1013.0 |
| 20260509124052 | 53 | 178 | 0.0 | 0.0 | 0.00 | 0.00 | 0.00 | 81 | 1013.0 |
| 20260509123552 | 53 | 267 | 0.0 | 1.0 | 0.00 | 0.00 | 0.00 | 82 | 1012.0 |
| 20260509123055 | 53 | 213 | 0.0 | 1.0 | 0.00 | 0.00 | 0.00 | 83 | 1012.0 |
| 20260509122552 | 52 | 284 | 1.0 | 1.0 | 0.00 | 0.00 | 0.00 | 81 | 1012.0 |
| 20260509122053 | 52 | 284 | 1.0 | 1.0 | 0.00 | 0.00 | 0.00 | 81 | 1013.0 |
| 20260509121552 | 52 | 261 | 1.0 | 1.0 | 0.00 | 0.00 | 0.00 | 82 | 1013.0 |
| 20260509121052 | 52 | 252 | 0.0 | 0.0 | 0.00 | 0.00 | 0.00 | 83 | 1012.0 |
| 20260509120552 | 52 | 0 | 0.0 | 0.0 | 0.00 | 0.00 | 0.00 | 83 | 1012.0 |
| 20260509120052 | 52 | 0 | 0.0 | 0.0 | 0.00 | 0.00 | 0.00 | 83 | 1012.0 |
| 20260509115553 | 51 | 0 | 0.0 | 0.0 | 0.00 | 0.00 | 0.00 | 83 | 1012.0 |
| 20260509115052 | 51 | 0 | 0.0 | 0.0 | 0.00 | 0.00 | 0.00 | 84 | 1013.0 |
| 20260509114552 | 51 | 197 | 0.0 | 0.0 | 0.00 | 0.00 | 0.00 | 83 | 1013.0 |
| 20260509114053 | 51 | 259 | 0.0 | 1.0 | 0.00 | 0.00 | 0.00 | 83 | 1013.0 |
| 20260509113553 | 51 | 253 | 1.0 | 2.0 | 0.00 | 0.00 | 0.00 | 83 | 1012.0 |
| 20260509113053 | 51 | 266 | 0.0 | 0.0 | 0.00 | 0.00 | 0.00 | 84 | 1012.0 |
| 20260509112552 | 51 | 0 | 0.0 | 0.0 | 0.00 | 0.00 | 0.00 | 84 | 1012.0 |
| 20260509112052 | 51 | 242 | 0.0 | 1.0 | 0.00 | 0.00 | 0.00 | 84 | 1013.0 |
| 20260509111552 | 51 | 260 | 0.0 | 1.0 | 0.00 | 0.00 | 0.00 | 84 | 1013.0 |
| 20260509111052 | 51 | 235 | 0.0 | 1.0 | 0.00 | 0.00 | 0.00 | 84 | 1013.0 |
| 20260509110552 | 50 | 218 | 2.0 | 2.0 | 0.00 | 0.00 | 0.00 | 84 | 1012.0 |
| 20260509110053 | 50 | 0 | 0.0 | 0.0 | 0.00 | 0.00 | 0.00 | 85 | 1012.0 |
| 20260509105553 | 50 | 0 | 0.0 | 0.0 | 0.00 | 0.00 | 0.00 | 84 | 1012.0 |
| 20260509105052 | 50 | 227 | 0.0 | 0.0 | 0.00 | 0.00 | 0.00 | 84 | 1013.0 |
| 20260509104552 | 50 | 249 | 0.0 | 1.0 | 0.00 | 0.00 | 0.00 | 84 | 1012.0 |
| 20260509104052 | 50 | 67 | 0.0 | 1.0 | 0.00 | 0.00 | 0.00 | 84 | 1012.0 |
| 20260509103552 | 50 | 0 | 0.0 | 0.0 | 0.00 | 0.00 | 0.00 | 84 | 1013.0 |
| 20260509103052 | 50 | 0 | 0.0 | 0.0 | 0.00 | 0.00 | 0.00 | 85 | 1013.0 |
| 20260509102553 | 50 | 268 | 1.0 | 2.0 | 0.00 | 0.00 | 0.00 | 85 | 1012.0 |
| 20260509102052 | 50 | 0 | 0.0 | 0.0 | 0.00 | 0.00 | 0.00 | 85 | 1012.0 |
| 20260509101554 | 50 | 266 | 1.0 | 2.0 | 0.00 | 0.00 | 0.00 | 85 | 1012.0 |
| 20260509101053 | 50 | 0 | 0.0 | 0.0 | 0.00 | 0.00 | 0.00 | 84 | 1012.0 |
| 20260509100553 | 50 | 188 | 0.0 | 0.0 | 0.00 | 0.00 | 0.00 | 84 | 1012.0 |
| 20260509100052 | 50 | 258 | 0.0 | 1.0 | 0.00 | 0.00 | 0.00 | 84 | 1012.0 |
| 20260509095552 | 50 | 250 | 0.0 | 1.0 | 0.00 | 0.00 | 0.00 | 84 | 1012.0 |
| 20260509095056 | 50 | 227 | 0.0 | 1.0 | 0.00 | 0.00 | 0.00 | 84 | 1012.0 |
| 20260509094552 | 50 | 260 | 0.0 | 0.0 | 0.00 | 0.00 | 0.00 | 84 | 1012.0 |
| 20260509094053 | 50 | 193 | 1.0 | 1.0 | 0.00 | 0.00 | 0.00 | 84 | 1012.0 |
| 20260509093553 | 50 | 0 | 0.0 | 0.0 | 0.00 | 0.00 | 0.00 | 84 | 1012.0 |
| 20260509093054 | 50 | 267 | 1.0 | 1.0 | 0.00 | 0.00 | 0.00 | 84 | 1012.0 |
| 20260509092553 | 50 | 250 | 0.0 | 1.0 | 0.00 | 0.00 | 0.00 | 84 | 1012.0 |
| 20260509092052 | 50 | 0 | 0.0 | 0.0 | 0.00 | 0.00 | 0.00 | 84 | 1012.0 |
| 20260509091552 | 50 | 0 | 0.0 | 0.0 | 0.00 | 0.00 | 0.00 | 84 | 1012.0 |
| 20260509091052 | 50 | 244 | 0.0 | 0.0 | 0.00 | 0.00 | 0.00 | 84 | 1012.0 |
| 20260509090553 | 50 | 86 | 0.0 | 0.0 | 0.00 | 0.00 | 0.00 | 84 | 1012.0 |
| 20260509090053 | 50 | 0 | 0.0 | 0.0 | 0.00 | 0.00 | 0.00 | 84 | 1012.0 |
| 20260509085552 | 50 | 169 | 0.0 | 1.0 | 0.00 | 0.00 | 0.00 | 84 | 1012.0 |
| 20260509085054 | 50 | 0 | 0.0 | 0.0 | 0.00 | 0.00 | 0.00 | 84 | 1012.0 |
| 20260509084553 | 50 | 187 | 0.0 | 1.0 | 0.00 | 0.00 | 0.00 | 84 | 1012.0 |
| 20260509084052 | 50 | 218 | 1.0 | 2.0 | 0.00 | 0.00 | 0.00 | 84 | 1012.0 |
| 20260509083553 | 50 | 0 | 0.0 | 0.0 | 0.00 | 0.00 | 0.00 | 84 | 1012.0 |
| 20260509083052 | 50 | 205 | 1.0 | 2.0 | 0.00 | 0.00 | 0.00 | 84 | 1012.0 |
| 20260509082552 | 50 | 261 | 0.0 | 0.0 | 0.00 | 0.00 | 0.00 | 84 | 1012.0 |
| 20260509082053 | 50 | 0 | 0.0 | 0.0 | 0.00 | 0.00 | 0.00 | 84 | 1013.0 |
| 20260509081553 | 50 | 242 | 0.0 | 1.0 | 0.00 | 0.00 | 0.00 | 84 | 1012.0 |
| 20260509081052 | 50 | 207 | 1.0 | 1.0 | 0.00 | 0.00 | 0.00 | 84 | 1012.0 |
| 20260509080553 | 51 | 247 | 2.0 | 2.0 | 0.00 | 0.00 | 0.00 | 83 | 1012.0 |
| 20260509080053 | 51 | 264 | 1.0 | 1.0 | 0.00 | 0.00 | 0.00 | 83 | 1012.0 |
| 20260509075552 | 51 | 216 | 0.0 | 1.0 | 0.00 | 0.00 | 0.00 | 82 | 1012.0 |
| 20260509075053 | 51 | 269 | 1.0 | 2.0 | 0.00 | 0.00 | 0.00 | 82 | 1012.0 |
| 20260509074552 | 51 | 0 | 0.0 | 0.0 | 0.00 | 0.00 | 0.00 | 82 | 1012.0 |
| 20260509074054 | 51 | 266 | 1.0 | 1.0 | 0.00 | 0.00 | 0.00 | 82 | 1012.0 |
| 20260509073554 | 51 | 200 | 0.0 | 0.0 | 0.00 | 0.00 | 0.00 | 82 | 1012.0 |
| 20260509073053 | 51 | 0 | 0.0 | 0.0 | 0.00 | 0.00 | 0.00 | 82 | 1012.0 |
| 20260509072553 | 51 | 0 | 0.0 | 0.0 | 0.00 | 0.00 | 0.00 | 83 | 1013.0 |
| 20260509072052 | 51 | 245 | 0.0 | 1.0 | 0.00 | 0.00 | 0.00 | 82 | 1013.0 |
| 20260509071552 | 51 | 0 | 0.0 | 0.0 | 0.00 | 0.00 | 0.00 | 82 | 1013.0 |
| 20260509071052 | 51 | 0 | 0.0 | 0.0 | 0.00 | 0.00 | 0.00 | 83 | 1013.0 |
| 20260509070553 | 51 | 241 | 0.0 | 1.0 | 0.00 | 0.00 | 0.00 | 83 | 1013.0 |
| 20260509070052 | 51 | 0 | 0.0 | 0.0 | 0.00 | 0.00 | 0.00 | 83 | 1012.0 |
| 20260509065552 | 51 | 251 | 0.0 | 1.0 | 0.00 | 0.00 | 0.00 | 83 | 1012.0 |
| 20260509065053 | 51 | 0 | 0.0 | 0.0 | 0.00 | 0.00 | 0.00 | 83 | 1013.0 |
| 20260509064553 | 51 | 0 | 0.0 | 0.0 | 0.00 | 0.00 | 0.00 | 83 | 1013.0 |
| 20260509064053 | 51 | 0 | 0.0 | 0.0 | 0.00 | 0.00 | 0.00 | 83 | 1012.0 |
| 20260509063552 | 51 | 245 | 0.0 | 0.0 | 0.00 | 0.00 | 0.00 | 82 | 1013.0 |
| 20260509063053 | 51 | 0 | 0.0 | 0.0 | 0.00 | 0.00 | 0.00 | 82 | 1013.0 |
| 20260509062552 | 51 | 182 | 0.0 | 0.0 | 0.00 | 0.00 | 0.00 | 82 | 1013.0 |
| 20260509062053 | 51 | 189 | 0.0 | 0.0 | 0.00 | 0.00 | 0.00 | 81 | 1012.0 |
| 20260509061553 | 51 | 261 | 0.0 | 0.0 | 0.00 | 0.00 | 0.00 | 81 | 1012.0 |
| 20260509061054 | 51 | 0 | 0.0 | 0.0 | 0.00 | 0.00 | 0.00 | 81 | 1012.0 |
| 20260509055552 | 51 | 0 | 0.0 | 0.0 | 0.00 | 0.00 | 0.00 | 81 | 1013.0 |
| 20260509055052 | 52 | 0 | 0.0 | 0.0 | 0.00 | 0.00 | 0.00 | 80 | 1013.0 |
| 20260509054553 | 52 | 0 | 0.0 | 0.0 | 0.00 | 0.00 | 0.00 | 81 | 1013.0 |
| 20260509054052 | 52 | 0 | 0.0 | 0.0 | 0.00 | 0.00 | 0.00 | 81 | 1013.0 |
| 20260509053553 | 52 | 267 | 0.0 | 1.0 | 0.00 | 0.00 | 0.00 | 80 | 1013.0 |
| 20260509053053 | 52 | 248 | 1.0 | 1.0 | 0.00 | 0.00 | 0.00 | 80 | 1013.0 |
| 20260509052553 | 52 | 0 | 0.0 | 0.0 | 0.00 | 0.00 | 0.00 | 80 | 1013.0 |
| 20260509052052 | 52 | 0 | 0.0 | 0.0 | 0.00 | 0.00 | 0.00 | 80 | 1013.0 |
| 20260509051552 | 52 | 259 | 0.0 | 1.0 | 0.00 | 0.00 | 0.00 | 80 | 1013.0 |
| 20260509051053 | 52 | 0 | 0.0 | 0.0 | 0.00 | 0.00 | 0.00 | 80 | 1013.0 |
| 20260509050552 | 52 | 257 | 0.0 | 1.0 | 0.00 | 0.00 | 0.00 | 80 | 1013.0 |
| 20260509050053 | 52 | 0 | 0.0 | 0.0 | 0.00 | 0.00 | 0.00 | 79 | 1013.0 |
| 20260509045553 | 52 | 243 | 0.0 | 1.0 | 0.00 | 0.00 | 0.00 | 79 | 1013.0 |
| 20260509045052 | 52 | 0 | 0.0 | 0.0 | 0.00 | 0.00 | 0.00 | 79 | 1013.0 |
| 20260509044552 | 52 | 175 | 0.0 | 0.0 | 0.00 | 0.00 | 0.00 | 78 | 1013.0 |
| 20260509044052 | 52 | 292 | 1.0 | 1.0 | 0.00 | 0.00 | 0.00 | 77 | 1013.0 |
| 20260509043552 | 52 | 262 | 0.0 | 1.0 | 0.00 | 0.00 | 0.00 | 77 | 1013.0 |
| 20260509043054 | 52 | 235 | 0.0 | 0.0 | 0.00 | 0.00 | 0.00 | 77 | 1013.0 |
| 20260509042552 | 52 | 269 | 0.0 | 1.0 | 0.00 | 0.00 | 0.00 | 76 | 1013.0 |
| 20260509042052 | 52 | 155 | 1.0 | 1.0 | 0.00 | 0.00 | 0.00 | 77 | 1013.0 |
| 20260509041552 | 52 | 292 | 0.0 | 1.0 | 0.00 | 0.00 | 0.00 | 77 | 1013.0 |
| 20260509041053 | 52 | 285 | 0.0 | 1.0 | 0.00 | 0.00 | 0.00 | 77 | 1013.0 |
| 20260509040553 | 52 | 0 | 0.0 | 0.0 | 0.00 | 0.00 | 0.00 | 76 | 1013.0 |
| 20260509040052 | 52 | 0 | 0.0 | 0.0 | 0.00 | 0.00 | 0.00 | 77 | 1013.0 |
| 20260509035553 | 53 | 0 | 0.0 | 0.0 | 0.00 | 0.00 | 0.02 | 77 | 1013.0 |
| 20260509035053 | 53 | 0 | 0.0 | 0.0 | 0.00 | 0.00 | 0.02 | 77 | 1013.0 |
| 20260509034557 | 53 | 0 | 0.0 | 0.0 | 0.00 | 0.00 | 0.02 | 76 | 1013.0 |
| 20260509034053 | 53 | 0 | 0.0 | 0.0 | 0.00 | 0.00 | 0.02 | 76 | 1013.0 |
| 20260509033552 | 53 | 0 | 0.0 | 0.0 | 0.00 | 0.00 | 0.02 | 76 | 1013.0 |
| 20260509033052 | 53 | 264 | 0.0 | 1.0 | 0.00 | 0.00 | 0.02 | 76 | 1013.0 |
| 20260509032553 | 53 | 269 | 0.0 | 1.0 | 0.00 | 0.00 | 0.02 | 75 | 1013.0 |
| 20260509032052 | 53 | 251 | 0.0 | 0.0 | 0.00 | 0.00 | 0.02 | 74 | 1013.0 |
| 20260509031552 | 53 | 303 | 0.0 | 1.0 | 0.00 | 0.00 | 0.02 | 74 | 1013.0 |
| 20260509031052 | 53 | 271 | 0.0 | 0.0 | 0.00 | 0.00 | 0.02 | 74 | 1013.0 |
| 20260509030554 | 53 | 181 | 0.0 | 0.0 | 0.00 | 0.00 | 0.02 | 74 | 1013.0 |
| 20260509030054 | 53 | 220 | 0.0 | 1.0 | 0.00 | 0.00 | 0.02 | 73 | 1013.0 |
| 20260509025552 | 53 | 236 | 0.0 | 1.0 | 0.00 | 0.00 | 0.02 | 73 | 1013.0 |
| 20260509025054 | 53 | 289 | 0.0 | 0.0 | 0.00 | 0.00 | 0.02 | 73 | 1013.0 |
| 20260509024552 | 54 | 166 | 0.0 | 0.0 | 0.00 | 0.00 | 0.02 | 72 | 1013.0 |
| 20260509024052 | 54 | 256 | 0.0 | 0.0 | 0.00 | 0.00 | 0.02 | 72 | 1013.0 |
| 20260509023553 | 54 | 194 | 0.0 | 1.0 | 0.00 | 0.00 | 0.02 | 72 | 1013.0 |
| 20260509023052 | 54 | 267 | 0.0 | 1.0 | 0.00 | 0.00 | 0.02 | 72 | 1013.0 |
| 20260509022552 | 54 | 189 | 0.0 | 0.0 | 0.00 | 0.00 | 0.02 | 71 | 1013.0 |
| 20260509022056 | 54 | 266 | 0.0 | 1.0 | 0.00 | 0.00 | 0.02 | 70 | 1013.0 |
| 20260509021553 | 54 | 253 | 0.0 | 1.0 | 0.00 | 0.00 | 0.02 | 70 | 1013.0 |
| 20260509021053 | 54 | 226 | 0.0 | 1.0 | 0.00 | 0.00 | 0.02 | 70 | 1013.0 |
| 20260509020554 | 54 | 39 | 0.0 | 1.0 | 0.00 | 0.00 | 0.02 | 70 | 1013.0 |
| 20260509020053 | 54 | 191 | 0.0 | 1.0 | 0.00 | 0.00 | 0.02 | 70 | 1013.0 |
| 20260509015557 | 54 | 246 | 0.0 | 0.0 | 0.00 | 0.00 | 0.02 | 69 | 1013.0 |
| 20260509015052 | 54 | 267 | 0.0 | 0.0 | 0.00 | 0.00 | 0.02 | 70 | 1013.0 |
| 20260509014553 | 54 | 0 | 0.0 | 0.0 | 0.00 | 0.00 | 0.02 | 69 | 1013.0 |
| 20260509014053 | 54 | 201 | 0.0 | 0.0 | 0.00 | 0.00 | 0.02 | 68 | 1013.0 |
| 20260509013553 | 55 | 202 | 0.0 | 1.0 | 0.00 | 0.00 | 0.02 | 68 | 1013.0 |
| 20260509013055 | 55 | 168 | 0.0 | 0.0 | 0.00 | 0.00 | 0.02 | 67 | 1013.0 |
| 20260509012552 | 55 | 250 | 0.0 | 1.0 | 0.00 | 0.00 | 0.02 | 67 | 1013.0 |
| 20260509012052 | 55 | 0 | 0.0 | 0.0 | 0.00 | 0.00 | 0.02 | 67 | 1013.0 |
| 20260509011553 | 55 | 248 | 0.0 | 0.0 | 0.00 | 0.00 | 0.02 | 66 | 1012.0 |
| 20260509011053 | 55 | 192 | 0.0 | 0.0 | 0.00 | 0.00 | 0.02 | 66 | 1012.0 |
| 20260509010552 | 55 | 279 | 0.0 | 0.0 | 0.00 | 0.00 | 0.02 | 66 | 1012.0 |
| 20260509010052 | 55 | 0 | 0.0 | 0.0 | 0.00 | 0.00 | 0.02 | 66 | 1012.0 |
| 20260509005552 | 55 | 0 | 0.0 | 0.0 | 0.00 | 0.00 | 0.02 | 66 | 1012.0 |
| 20260509005054 | 56 | 254 | 0.0 | 0.0 | 0.00 | 0.00 | 0.02 | 65 | 1012.0 |
| 20260509004552 | 56 | 202 | 0.0 | 1.0 | 0.00 | 0.00 | 0.02 | 65 | 1012.0 |
| 20260509004053 | 56 | 263 | 0.0 | 1.0 | 0.00 | 0.00 | 0.02 | 64 | 1012.0 |
| 20260509003552 | 56 | 246 | 0.0 | 1.0 | 0.00 | 0.00 | 0.02 | 64 | 1012.0 |
| 20260509003057 | 56 | 237 | 0.0 | 0.0 | 0.00 | 0.00 | 0.02 | 63 | 1012.0 |
| 20260509002552 | 56 | 193 | 0.0 | 1.0 | 0.00 | 0.00 | 0.02 | 63 | 1012.0 |
| 20260509002052 | 57 | 0 | 0.0 | 0.0 | 0.00 | 0.00 | 0.02 | 63 | 1012.0 |
| 20260509001553 | 57 | 0 | 0.0 | 0.0 | 0.00 | 0.00 | 0.02 | 63 | 1012.0 |
| 20260509001052 | 57 | 253 | 1.0 | 2.0 | 0.00 | 0.00 | 0.02 | 63 | 1012.0 |
| 20260509000552 | 57 | 0 | 0.0 | 0.0 | 0.00 | 0.00 | 0.02 | 63 | 1012.0 |
| 20260509000052 | 58 | 0 | 0.0 | 0.0 | 0.00 | 0.00 | 0.02 | 62 | 1012.0 |
| 20260508235553 | 58 | 243 | 0.0 | 0.0 | 0.00 | 0.00 | 0.02 | 60 | 1012.0 |
| 20260508235052 | 58 | 0 | 0.0 | 0.0 | 0.00 | 0.00 | 0.02 | 60 | 1012.0 |
| 20260508234552 | 58 | 0 | 0.0 | 0.0 | 0.00 | 0.00 | 0.02 | 60 | 1012.0 |
| 20260508234052 | 59 | 221 | 0.0 | 0.0 | 0.00 | 0.00 | 0.02 | 59 | 1012.0 |
| 20260508233554 | 59 | 0 | 0.0 | 0.0 | 0.00 | 0.00 | 0.02 | 57 | 1012.0 |
| 20260508233052 | 59 | 262 | 0.0 | 0.0 | 0.00 | 0.00 | 0.02 | 57 | 1012.0 |
| 20260508232552 | 59 | 0 | 0.0 | 0.0 | 0.00 | 0.00 | 0.02 | 57 | 1011.0 |
| 20260508232052 | 59 | 0 | 0.0 | 0.0 | 0.00 | 0.00 | 0.02 | 56 | 1011.0 |
| 20260508231553 | 60 | 279 | 0.0 | 1.0 | 0.00 | 0.00 | 0.02 | 56 | 1011.0 |